Regional Weather Roundup
Issued by NWS

Home | Current Version | Previous Version | Graphics & Text | Print | Product List | Glossary On
Versions: 1 2 3 4 5 6 7 8 9 10 11 12 13 14 15 16 17 18 19 20 21 22 23 24 25 26 27 28 29 30 31 32 33 34 35 36 37 38 39 40 41 42 43 44 45 46 47 48 49 50
000
ASUS43 KDMX 191807
RWRIA

WEATHER ROUNDUP FOR IOWA
NATIONAL WEATHER SERVICE DES MOINES IA
100 PM CDT TUE AUG 19 2014

NOTE: "FAIR" INDICATES FEW OR NO CLOUDS BELOW 12,000 FEET WITH NO
SIGNIFICANT WEATHER AND/OR OBSTRUCTIONS TO VISIBILITY.

* - THESE STATIONS ARE NOT NWS STATIONS...THUS NOT UNDER NWS
QUALITY CONTROL.  THEY ALSO DO NOT REPORT WEATHER SUCH
AS PRECIPITATION OR FOG.

IAZ001>003-012>014-020>022-031>034-043>046-191900-
   NORTHWEST IOWA

CITY           SKY/WX    TMP DP  RH WIND       PRES   REMARKS
CARROLL *      SUNNY     81  64  57 NW9       29.83S HX  82
CHEROKEE *     MOSUNNY   79  65  63 NW5       29.82F HX  81
DENISON *      SUNNY     81  66  61 NW10      29.82S HX  83
LE MARS *      SUNNY     81  64  57 VRB6      29.83F HX  82
ORANGE CITY *  SUNNY     79  63  57 NW3       29.83F HX  80
SHELDON *      MOSUNNY   79  66  65 CALM      29.82F HX  81
SIOUX CITY     SUNNY     83  64  52 VRB7      29.83F HX  84
6HR MIN TEMP:  62; 6HR MAX TEMP:  83;

SPENCER        PTSUNNY   79  64  60 W5        29.82F HX  81
6HR MIN TEMP:  62; 6HR MAX TEMP:  80;

STORM LAKE *   SUNNY     77  66  69 W7        29.84F
$$

IAZ055>058-069>071-079>083-090>094-191900-
   SOUTHWEST IOWA

CITY           SKY/WX    TMP DP  RH WIND       PRES   REMARKS
ATLANTIC *     SUNNY     82  66  57 NW6G13    29.83F HX  85
AUDUBON *      SUNNY     84  70  61 W5        29.85S HX  88
CLARINDA *     MOSUNNY   84  68  58 VRB6G12   29.85S HX  87
COUNCIL BLFS * SUNNY     84  64  51 VRB5      29.83F HX  86
CRESTON *      MOSUNNY   82  66  57 NW12      29.85S HX  85
HARLAN  *      SUNNY     81  66  61 NW6G13    29.87F HX  83
LAMONI         SUNNY     84  67  56 W10       29.83S HX  86
6HR MIN TEMP:  71; 6HR MAX TEMP:  84;

RED OAK *      SUNNY     84  66  54 VRB6      29.84S HX  86
SHENANDOAH *   SUNNY     86  70  58 VRB3      29.84F HX  90
$$

IAZ047>049-059>061-072>074-084-191900-
   CENTRAL IOWA

CITY           SKY/WX    TMP DP  RH WIND       PRES   REMARKS
AMES           MOSUNNY   81  65  58 NW10      29.81S HX  83
6HR MIN TEMP:  67; 6HR MAX TEMP:  82;

ANKENY *       MOSUNNY   82  66  57 NW10      29.81R HX  85
CHARITON *     MOSUNNY   82  68  61 NW9G15    29.82S HX  85
DES MOINES     MOSUNNY   83  65  54 NW9       29.81R HX  85
6HR MIN TEMP:  70; 6HR MAX TEMP:  83;

GRINNELL*      MOSUNNY   81  66  61 NW9       29.81S HX  83
KNOXVILLE *    MOSUNNY   82  64  54 W10       29.80S HX  84
MARSHALLTOWN   MOSUNNY   80  65  59 NW9       29.80R HX  82
6HR MIN TEMP:  65; 6HR MAX TEMP:  81;

PELLA *        SUNNY     83  65  53 NW9       29.81S HX  85
PERRY *          N/A     81  64  57 NW6       29.83S HX  82
$$

IAZ004>006-015-016-023>025-035-036-191900-
   NORTH CENTRAL IOWA

CITY           SKY/WX    TMP DP  RH WIND       PRES   REMARKS
ALGONA *       MOSUNNY   79  64  61 N8        29.81F HX  81
CLARION *      MOSUNNY   79  64  61 NW8       29.81S HX  81
ESTHERVILLE    PTSUNNY   78  63  59 NW5       29.81F HX  80
6HR MIN TEMP:  61; 6HR MAX TEMP:  78;

FORT DODGE *   MOSUNNY   79  64  61 NW6       29.83S HX  81
MASON CITY     PTSUNNY   79  63  57 NW8       29.81S HX  80
6HR MIN TEMP:  63; 6HR MAX TEMP:  81;

FOREST CITY *  MOSUNNY   79  64  61 NW10      29.80F HX  81
IOWA FALLS *     N/A     79  63  57 NW10      29.82R HX  81
$$

IAZ007>011-017>019-026>030-037>042-050>054-066-191900-
   NORTHEAST IOWA

CITY           SKY/WX    TMP DP  RH WIND       PRES   REMARKS
CEDAR RAPIDS   MOSUNNY   82  66  58 NW9       29.77S HX  84
6HR MIN TEMP:  68; 6HR MAX TEMP:  83;

CHARLES CITY * PTSUNNY   77  64  65 W9G16     29.80S
CLINTON *      PTSUNNY   81  66  61 W7        29.78S HX  83
DECORAH *      PTSUNNY   75  64  69 NW8       29.77S
DUBUQUE        PTSUNNY   81  63  54 W14       29.76F HX  82
6HR MIN TEMP:  69; 6HR MAX TEMP:  82;

MONTICELLO *   PTSUNNY   82  66  57 W9G17     29.75F HX  85
OELWEIN *      PTSUNNY   77  66  69 NW10G17   29.78F
WATERLOO       PTSUNNY   79  63  57 NW12G20   29.77S HX  80
6HR MIN TEMP:  66; 6HR MAX TEMP:  81;

$$

IAZ064-065-067-068-078-191900-
   EAST CENTRAL IOWA

CITY           SKY/WX    TMP DP  RH WIND       PRES   REMARKS
DAVENPORT      MOSUNNY   82  68  62 W9        29.76F HX  85
6HR MIN TEMP:  71; 6HR MAX TEMP:  82;

IOWA CITY      PTSUNNY   83  66  56 W6G17     29.78S HX  85
6HR MIN TEMP:  69; 6HR MAX TEMP:  85; 6HR PCP: TRACE;

MT. PLEASANT * MOSUNNY   85  67  54 W3        29.78F HX  87
MUSCATINE *    PTSUNNY   84  68  58 VRB6G14   29.76F HX  87
QUAD CITIES    PTSUNNY   83  68  60 W12       29.75F HX  86
6HR MIN TEMP:  72; 6HR MAX TEMP:  83;

$$

IAZ062-063-075>077-085>089-095>099-191900-
   SOUTHEAST IOWA

CITY           SKY/WX    TMP DP  RH WIND       PRES   REMARKS
BURLINGTON       N/A     81  67  62 W7        29.78S HX  83
6HR MIN TEMP:  68; 6HR MAX TEMP:  81; 6HR PCP:  0.82;

FAIRFIELD *    MOSUNNY   82  70  65 W9        29.80R HX  86
FORT MADISON * SUNNY     82  68  61 SW7       29.80S HX  85
KEOKUK *       SUNNY     81  68  65 SW10      29.79R HX  83
OSKALOOSA *      N/A     82  66  58 NW13      29.81R HX  84
CENTERVILLE *  SUNNY     84  72  65 W7        29.83S HX  89
OTTUMWA        MOSUNNY   82  66  58 NW9       29.79R HX  84
6HR MIN TEMP:  70; 6HR MAX TEMP:  83;

WASHINGTON *   SUNNY     84  68  58 W12       29.79R HX  87
$$

ABBREVIATIONS USED IN REMARKS
   TC - TEMPERATURES IN CELSIUS
  WCI - WIND CHILL INDEX
   HX - HEAT INDEX
  VSB - VISIBILITY
$$



USA.gov is the U.S. government's official web portal to all federal, state and local government web resources and services.